Home > Weather > Independence > Past weeks

Flag for U.S.A. Weather for the Past 2 Weeks in Independence, Missouri, U.S.A.

Now
31 °F

Overcast.


Feels Like: 17 °F
Forecast: 26 / 35 °F
Wind: 24 mph from Northwest

Location: Lee's Summit Municipal Airport

Current Time: Feb 8, 2016 at 8:53:15 AM

Latest Report: Feb 8, 2016 at 7:53 AM


Visibility: 10 mi

Pressure: 30.01 "Hg

Humidity: 54%

Dew point: 16 °F

Location of IndependenceLocation

Historic Weather in Independence — Graph

°F

Independence Temperature Yesterday

Maximum temperature yesterday: 50 °F (at 11:53 AM)
Minimum temperature yesterday: 37 °F (at 9:53 PM)
Average temperature yesterday: 42 °F

High & Low Weather Summary for the Past Weeks

 TemperatureHumidityPressure
High64 °F (Jan 29, 3:53 PM)96% (Feb 2, 8:53 AM)30.46 "Hg (Feb 2, 8:53 AM)
Low19 °F (Feb 4, 5:53 AM)25% (Feb 7, 4:53 PM)29.36 "Hg (Feb 2, 1:53 PM)
Average39 °F64%29.98 "Hg
* Reported Jan 24 7:53 AM — Feb 8 7:53 AM, Independence, Weather by CustomWeather, © 2016

Note: Actual official high and low records may vary slightly from our data, if they occured in-between our weather recording intervals... More about our weather records

Advertising

Independence Weather History for the Previous 24 Hours

 ConditionsComfort  
Time TempWeatherWind HumidityBarometerVisibility
7:53 AM
Mon, Feb 8
31 °FOvercast.24 mph54%30.01 "Hg10 mi
6:53 AM33 °FOvercast.21 mph49%30.01 "Hg10 mi
5:53 AM34 °FLight snow. Overcast.18 mph59%29.99 "Hg9 mi
4:53 AM34 °FMostly cloudy.17 mph56%29.98 "Hg10 mi
3:53 AM34 °FOvercast.17 mph56%29.99 "Hg10 mi
2:53 AM34 °FOvercast.24 mph59%29.99 "Hg10 mi
1:53 AM35 °FPassing clouds.28 mph52%29.99 "Hg10 mi
12:53 AM37 °FMostly cloudy.18 mph62%29.99 "Hg10 mi
11:53 PM
Sun, Feb 7
37 °FMostly cloudy.20 mph57%30.00 "Hg10 mi
10:53 PM38 °FOvercast.25 mph58%30.02 "Hg10 mi
9:53 PM37 °FLight snow. Mostly cloudy.17 mph67%30.03 "Hg8 mi
8:53 PM38 °FMostly cloudy.15 mph65%30.03 "Hg10 mi
7:53 PM38 °FOvercast.17 mph68%30.04 "Hg10 mi
6:53 PM45 °FMostly cloudy.18 mph35%30.01 "Hg10 mi
5:53 PM47 °FMostly cloudy.29 mph29%30.01 "Hg10 mi
4:53 PM50 °FPartly sunny.28 mph25%30.00 "Hg10 mi
3:53 PM50 °FPassing clouds.21 mph35%30.00 "Hg10 mi
2:53 PM50 °FPassing clouds.20 mph35%30.00 "Hg10 mi
1:53 PM50 °FPartly sunny.20 mph33%30.01 "Hg10 mi
12:53 PM49 °FPassing clouds.17 mph35%30.04 "Hg10 mi
11:53 AM50 °FPassing clouds.16 mph39%30.05 "Hg10 mi
10:53 AM47 °FSunny.17 mph46%30.05 "Hg10 mi
9:53 AM43 °FOvercast.13 mph56%30.06 "Hg10 mi
8:53 AM40 °FPartly sunny.9 mph60%30.05 "Hg10 mi
Weather by CustomWeather, © 2016

See weather overviewHow to use our weather pages